Terminal Aerodrome Forecast
Issued by NWS Indianapolis, IN

Home | Current Version | Previous Version | Text Only | Print | Product List | Glossary On
Versions: 1 2 3 4 5 6 7 8 9 10 11 12 13 14 15 16 17 18 19 20 21 22 23 24 25 26 27
000
FTUS43 KIND 012021 AAA
TAFIND
TAF AMD
KIND 012021Z 0120/0224 25008KT P6SM SCT040 BKN080
     FM020100 22005KT P6SM FEW250
     FM020700 22003KT P6SM SCT250
      TEMPO 0210/0212 4SM BR
     FM021400 26007KT P6SM SCT030 SCT250=

USA.gov is the U.S. government's official web portal to all federal, state and local government web resources and services.